CW5306 Weather Reports


time (UTC)temp
C
wind
direction
speed
KPH
gust
KPH
rain 1hr
cm
rain 24hr
cm
rain mn
cm
humidity
%
barometer
mb
20260508175653 20 224 0.0 0.0 0.05 1.24 2.41 93 1019.5
20260508174920 20 225 0.0 0.0 0.05 1.24 2.41 93 1019.3
20260508174653 20 225 0.0 0.0 0.05 1.24 2.41 93 1019.3
20260508173920 20 225 0.0 0.0 0.05 1.24 2.41 93 1019.3
20260508173426 20 235 0.0 0.0 0.10 1.24 2.39 93 1019.4
20260508173420 20 225 0.0 0.0 0.08 1.24 2.41 93 1019.4
20260508172421 19 232 0.0 0.0 0.08 1.22 2.39 93 1019.4
20260508171921 19 239 0.0 0.0 0.05 1.19 2.36 93 1019.4
20260508171420 19 226 0.0 0.0 0.08 1.19 2.36 92 1019.2
20260508170927 19 249 0.0 0.0 0.15 1.19 2.36 92 1018.8
20260508170921 19 226 0.0 0.0 0.10 1.19 2.36 92 1018.9
20260508165909 19 251 0.0 0.0 0.30 1.19 2.36 92 1018.9
20260508165403 19 245 0.0 0.0 0.33 1.19 2.36 92 1018.8
20260508164857 19 250 0.0 0.0 0.41 1.19 2.36 92 1018.9
20260508164357 19 239 0.0 0.0 0.56 1.19 2.36 92 1018.7
20260508163857 19 239 0.0 0.0 0.64 1.19 2.36 92 1018.8
20260508163358 19 239 0.0 0.0 0.79 1.17 2.34 92 1018.7
20260508162851 19 239 0.0 0.0 0.89 1.14 2.31 92 1018.9
20260508162351 19 235 0.0 0.0 1.14 1.14 2.31 92 1018.7
20260508161851 19 236 0.0 0.0 1.12 1.12 2.29 92 1018.6
20260508161346 19 239 0.0 9.7 1.12 1.12 2.29 92 1018.3
20260508160845 19 289 0.0 9.7 1.12 1.12 2.26 92 1018.2
20260508160344 19 224 6.4 8.0 1.04 1.04 2.21 92 1018.1
20260508160340 19 279 0.0 8.0 0.89 0.89 2.06 92 1018.1
20260508155330 19 282 3.2 12.9 0.86 0.86 2.03 92 1018.0
20260508154821 19 210 0.0 14.5 0.79 0.79 1.96 92 1017.9
20260508154311 19 225 3.2 14.5 0.64 0.64 1.78 92 1018.0
20260508153809 19 212 3.2 9.7 0.56 0.56 1.73 92 1017.7
20260508153307 19 237 0.0 12.9 0.36 0.36 1.55 92 1017.9
20260508152803 19 242 4.8 12.9 0.18 0.18 1.37 92 1017.8
20260508152242 19 0.0 0.0 0.00 0.00 0.36 92
20260508144516 20 252 6.4 8.0 0.23 0.36 0.36 91 1017.3
20260508143946 20 202 0.0 9.7 0.25 0.36 0.36 91 1017.6
20260508143433 20 224 0.0 9.7 0.25 0.36 0.36 91 1017.4
20260508142934 20 212 0.0 14.5 0.25 0.36 0.36 91 1017.4
20260508142434 20 235 0.0 14.5 0.25 0.36 0.36 90 1017.4
20260508141923 20 201 0.0 9.7 0.23 0.33 0.36 91 1017.3
20260508141422 20 243 0.0 14.5 0.20 0.30 0.33 89 1017.3
20260508140922 20 265 1.6 14.5 0.20 0.30 0.30 89 1017.5
20260508140422 20 321 0.0 0.0 0.15 0.25 0.25 88 1017.5
20260508135922 20 205 0.0 17.7 0.10 0.20 0.23 88 1017.8
20260508135422 20 305 0.0 17.7 0.05 0.15 0.18 88 1017.6
20260508134921 20 222 1.6 14.5 0.05 0.15 0.15 88 1017.8
20260508134409 20 135 0.0 14.5 0.05 0.10 0.10 88 1017.7
20260508134140 21 200 0.0 8.0 0.05 0.10 0.10 88 1017.7
20260508133410 21 294 0.0 8.0 0.05 0.10 0.10 88 1017.5
20260508133141 21 216 0.0 14.5 0.05 0.10 0.10 88 1017.6
20260508132409 21 225 0.0 14.5 0.05 0.10 0.10 88 1017.7
20260508131910 22 223 0.0 8.0 0.05 0.10 0.10 88 1017.7
20260508131410 22 233 0.0 8.0 0.05 0.10 0.10 88 1017.8
20260508130857 22 191 0.0 9.7 0.05 0.10 0.10 88 1017.7
20260508130358 22 115 0.0 16.1 0.05 0.10 0.10 88 1017.8
20260508125859 22 80 0.0 16.1 0.08 0.10 0.10 89 1017.6
20260508125628 22 70 0.0 14.5 0.10 0.10 0.10 89 1017.4
20260508124858 22 56 0.0 17.7 0.08 0.08 0.08 88 1017.3
20260508124358 22 75 8.0 17.7 0.05 0.05 0.05 88 1017.5
20260508124128 22 91 1.6 17.7 0.05 0.05 0.05 88 1017.9
20260508123358 22 86 6.4 22.5 0.05 0.05 0.05 88 1017.7
20260508122839 22 63 4.8 20.9 0.05 0.05 0.05 88 1018.0
20260508122334 22 59 4.8 22.5 0.05 0.05 0.05 88 1017.9
20260508121821 22 62 9.7 16.1 0.05 0.05 0.05 89 1017.8
20260508121322 22 24 8.0 20.9 0.05 0.05 0.05 88 1018.2
20260508120821 22 40 4.8 22.5 0.05 0.05 0.05 88 1018.0
20260508120321 22 68 12.9 25.7 0.05 0.05 0.05 88 1018.1
20260508115821 23 71 12.9 25.7 0.00 0.00 0.03 86 1018.4
20260508115320 23 57 0.0 22.5 0.00 0.00 0.00 86 1018.4
20260508114820 23 76 6.4 20.9 0.00 0.00 0.00 85 1018.5
20260508114322 23 37 11.3 17.7 0.00 0.00 0.00 85 1018.4
20260508114308 23 76 8.0 20.9 0.00 0.00 0.00 85 1018.5
20260508114059 23 76 8.0 20.9 0.00 0.00 0.00 85 1018.5
20260508114054 23 44 14.5 17.7 0.00 0.00 0.00 85 1018.5
20260508113827 23 44 14.5 17.7 0.00 0.00 0.00 85 1018.5
20260508113539 23 76 8.0 20.9 0.00 0.00 0.00 85 1018.5
20260508112804 23 41 0.0 20.9 0.00 0.00 0.00 84 1018.6
20260508112307 23 83 9.7 25.7 0.00 0.00 0.00 83 1018.5
20260508111752 23 95 14.5 25.7 0.00 0.00 0.00 83 1018.6
20260508111252 23 73 14.5 22.5 0.00 0.00 0.00 84 1018.5
20260508111022 23 85 12.9 24.1 0.00 0.00 0.00 84 1018.4
20260508110533 23 74 11.3 25.7 0.00 0.00 0.00 83 1018.5
20260508110236 23 74 12.9 17.7 0.00 0.00 0.00 83 1018.6
20260508110029 23 64 12.9 25.7 0.00 0.00 0.00 83 1018.8
20260508105806 23 64 12.9 25.7 0.00 0.00 0.00 83 1018.8
20260508105522 23 74 12.9 17.7 0.00 0.00 0.00 83 1018.6
20260508104237 23 88 6.4 17.7 0.00 0.00 0.00 81 1018.6
20260508103453 23 71 11.3 17.7 0.00 0.00 0.00 81 1018.7
20260508103448 23 77 6.4 9.7 0.00 0.00 0.00 82 1018.7
20260508103243 23 77 6.4 9.7 0.00 0.00 0.00 82 1018.7
20260508101714 23 2 6.4 24.1 0.00 0.00 0.00 81 1018.8
20260508101011 23 93 0.0 17.7 0.00 0.00 0.00 81 1018.8
20260508100942 23 70 12.9 22.5 0.00 0.00 0.00 81 1018.8
20260508100443 23 93 0.0 17.7 0.00 0.00 0.00 81 1018.8
20260508100201 23 65 4.8 20.9 0.00 0.00 0.10 82 1018.9
20260508095935 23 65 4.8 20.9 0.00 0.00 0.10 82 1018.9
20260508095723 23 88 6.4 22.5 0.00 0.00 0.10 81 1019.1
20260508095457 23 88 6.4 22.5 0.00 0.00 0.10 81 1019.1
20260508094913 23 115 6.4 22.5 0.00 0.00 0.10 81 1019.0
20260508094407 23 0.0 0.0 0.00 0.00 0.10 80
20260508094129 23 48 8.0 22.5 0.00 0.00 0.10 81 1019.1
20260508093910 23 48 8.0 22.5 0.00 0.00 0.10 81 1019.1
20260508093300 23 76 4.8 20.9 0.00 0.00 0.10 80 1019.4
20260508091948 23 70 16.1 20.9 0.00 0.00 0.10 80 1019.5
20260508091707 23 84 1.6 6.4 0.00 0.00 0.10 80 1019.6
20260508091436 23 84 1.6 6.4 0.00 0.00 0.10 80 1019.6
20260508085934 -17 0.0 0.0 0.00 0.10 0.10
20260508085844 23 62 9.7 14.5 0.00 0.10 0.10 80 1019.6
20260508084222 23 79 0.0 20.9 0.00 0.10 0.10 81 1019.3
20260508084210 23 36 0.0 16.1 0.00 0.10 0.10 82 1019.6
20260508083737 23 75 9.7 20.9 0.00 0.10 0.10 81 1019.3
20260508082946 23 59 12.9 14.5 0.00 0.10 0.10 81 1019.3
20260508082719 23 59 12.9 14.5 0.00 0.10 0.10 81 1019.3
20260508081856 23 74 8.0 20.9 0.00 0.10 0.10 81 1019.3
20260508080825 23 64 17.7 24.1 0.00 0.10 0.10 80 1019.5
20260508080810 23 75 9.7 24.1 0.00 0.10 0.10 80 1019.3
20260508080559 23 64 17.7 24.1 0.00 0.10 0.10 80 1019.5
20260508080318 23 64 17.7 24.1 0.00 0.10 0.10 80 1019.5
20260508075807 23 114 1.6 17.7 0.00 0.10 0.10 80 1019.5
20260508075314 23 98 8.0 22.5 0.00 0.10 0.10 80 1019.4
20260508075309 23 90 12.9 17.7 0.00 0.10 0.10 81 1019.6
20260508074307 23 119 0.0 22.5 0.00 0.10 0.10 80 1019.4
20260508073809 23 99 8.0 17.7 0.00 0.10 0.10 80 1019.6
20260508073307 23 85 0.0 20.9 0.00 0.10 0.10 80 1019.5
20260508072807 23 94 0.0 20.9 0.00 0.10 0.10 80 1019.3
20260508072308 23 79 0.0 20.9 0.00 0.10 0.10 80 1019.3
20260508071810 23 76 12.9 20.9 0.00 0.10 0.10 80 1019.2
20260508071308 23 80 8.0 20.9 0.00 0.10 0.10 79 1019.2
20260508070807 23 104 9.7 20.9 0.00 0.10 0.10 79 1019.2
20260508070307 23 78 6.4 22.5 0.00 0.10 0.10 80 1019.0
20260508065808 23 73 8.0 22.5 0.00 0.10 0.10 80 1019.3
20260508065308 23 97 0.0 16.1 0.00 0.10 0.10 80 1018.9
20260508064808 23 73 1.6 20.9 0.00 0.10 0.10 80 1018.9
20260508064308 23 119 6.4 20.9 0.00 0.10 0.10 80 1018.8
20260508063808 23 82 6.4 20.9 0.00 0.10 0.10 80 1019.0
20260508063308 23 73 6.4 20.9 0.00 0.10 0.10 80 1018.8
20260508062807 23 78 3.2 17.7 0.00 0.10 0.10 80 1018.9
20260508062307 23 69 6.4 17.7 0.00 0.10 0.10 80 1019.0
20260508061807 23 55 6.4 14.5 0.00 0.10 0.10 80 1018.7
20260508061538 23 77 11.3 14.5 0.00 0.10 0.10 79 1018.8
20260508061039 23 96 9.7 24.1 0.00 0.10 0.10 79 1018.7
20260508060308 23 48 0.0 24.1 0.00 0.10 0.10 79 1018.7
20260508055807 23 98 1.6 16.1 0.00 0.10 0.10 79 1018.6
20260508055307 23 63 11.3 14.5 0.00 0.10 0.10 79 1018.5
20260508055029 23 90 4.8 16.1 0.00 0.10 0.10 79 1018.5
20260508054903 23 90 0.0 16.1 0.00 0.10 0.10 79 1018.4
20260508053756 23 61 8.0 12.9 0.00 0.10 0.10 79 1018.5
20260508053256 23 86 4.8 16.1 0.00 0.10 0.10 79 1018.5
20260508052756 23 97 9.7 16.1 0.00 0.10 0.10 79 1018.4
20260508052526 23 93 8.0 17.7 0.00 0.10 0.10 79 1018.1
20260508051756 23 110 0.0 17.7 0.00 0.10 0.10 79 1018.4
20260508051256 23 43 0.0 14.5 0.00 0.10 0.10 78 1018.2
20260508050755 23 67 8.0 16.1 0.00 0.10 0.10 78 1018.1
20260508050244 23 100 8.0 16.1 0.00 0.10 0.10 78 1018.2
20260508045744 24 52 3.2 12.9 0.00 0.10 0.10 78 1018.1
20260508045515 24 103 0.0 17.7 0.00 0.10 0.10 77 1018.3
20260508044743 24 77 1.6 17.7 0.00 0.10 0.10 78 1017.9
20260508044246 24 85 1.6 17.7 0.00 0.10 0.10 77 1017.9
20260508044014 24 108 4.8 17.7 0.00 0.10 0.10 77 1017.8
20260508043232 24 18 0.0 16.1 0.00 0.10 0.10 77 1017.9
20260508042731 24 89 0.0 12.9 0.00 0.10 0.10 76 1018.0
20260508042232 24 90 0.0 14.5 0.00 0.10 0.10 76 1018.0
20260508041731 24 71 0.0 17.7 0.00 0.10 0.10 75 1017.7
20260508041231 24 101 1.6 17.7 0.00 0.10 0.10 76 1017.7
20260508041003 24 72 6.4 14.5 0.00 0.10 0.10 74 1017.5
20260508040231 24 102 4.8 14.5 0.00 0.10 0.10 74 1017.6
20260508035731 25 66 0.0 14.5 0.00 0.10 0.10 74 1017.6
20260508035219 24 121 4.8 14.5 0.00 0.10 0.10 73 1017.6
20260508034719 24 94 0.0 12.9 0.00 0.10 0.10 72 1017.7
20260508034452 24 90 0.0 14.5 0.00 0.10 0.10 72 1017.6
20260508033950 24 99 0.0 16.1 0.00 0.10 0.10 72 1017.6
20260508033219 25 66 0.0 16.1 0.00 0.10 0.10 71 1017.6
20260508032720 25 94 0.0 16.1 0.00 0.10 0.10 72 1017.6
20260508032219 25 64 11.3 17.7 0.00 0.10 0.10 73 1017.3
20260508031720 25 89 6.4 17.7 0.00 0.10 0.10 71 1017.5
20260508031220 25 105 1.6 14.5 0.00 0.10 0.10 70 1017.4
20260508030719 25 97 0.0 14.5 0.00 0.10 0.10 71 1017.5
20260508030219 25 90 9.7 16.1 0.00 0.10 0.10 71 1017.3
20260508025952 25 91 0.0 16.1 0.00 0.10 0.10 72 1017.3
20260508025220 25 94 1.6 16.1 0.00 0.10 0.10 73 1017.3
20260508024720 25 108 0.0 16.1 0.00 0.10 0.10 72 1017.3
20260508024220 25 81 3.2 16.1 0.00 0.10 0.10 70 1017.3
20260508023719 25 55 6.4 14.5 0.00 0.10 0.10 71 1017.3
20260508023451 25 136 0.0 17.7 0.00 0.10 0.10 72 1017.4
20260508022719 25 14 0.0 17.7 0.00 0.10 0.10 72 1017.2
20260508022219 25 67 9.7 17.7 0.00 0.10 0.10 72 1017.5
20260508021950 25 84 3.2 16.1 0.00 0.10 0.10 71 1017.5
20260508021219 25 24 0.0 16.1 0.00 0.10 0.10 73 1017.2
20260508020951 25 68 6.4 17.7 0.00 0.10 0.10 71 1017.5
20260508020220 25 85 12.9 17.7 0.00 0.10 0.10 70 1017.3
20260508015719 25 87 0.0 17.7 0.00 0.10 0.10 72 1017.5
20260508015220 26 75 9.7 17.7 0.00 0.10 0.10 70 1017.5
20260508014951 26 97 0.0 17.7 0.00 0.10 0.10 70 1017.5
20260508014220 26 89 0.0 17.7 0.00 0.10 0.10 70 1017.3
20260508013720 26 104 6.4 16.1 0.00 0.10 0.10 70 1017.3
20260508013221 26 68 9.7 16.1 0.00 0.10 0.10 70 1017.6
20260508012725 25 61 0.0 20.9 0.10 0.10 0.10 73 1017.8
20260508012719 26 53 6.4 20.9 0.00 0.10 0.10 71 1017.7
20260508011724 26 64 14.5 17.7 0.10 0.10 0.10 70 1017.8
20260508011232 26 53 8.0 17.7 0.10 0.10 0.10 71 1018.0
20260508010720 26 74 8.0 17.7 0.10 0.10 0.10 68 1018.0
20260508010221 26 46 0.0 17.7 0.10 0.10 0.10 70 1017.8
20260508005945 26 55 9.7 17.7 0.10 0.10 0.10 69 1018.0
20260508005158 26 100 0.0 16.1 0.10 0.10 0.10 70 1018.0
20260508004658 26 25 11.3 17.7 0.10 0.10 0.10 70 1018.1
20260508004652 26 59 3.2 17.7 0.10 0.10 0.10 70 1018.1
20260508003641 26 43 6.4 17.7 0.10 0.10 0.10 71 1018.2
20260508003137 26 54 0.0 17.7 0.10 0.10 0.10 70 1018.2
20260508002623 26 54 1.6 17.7 0.08 0.08 0.10 70 1018.2
20260508002354 26 32 8.0 17.7 0.00 0.00 0.00 71 1018.3
20260508001854 26 80 6.4 20.9 0.00 0.00 0.00 70 1018.2
20260508001123 26 38 6.4 20.9 0.00 0.00 0.00 70 1018.4
20260508000622 26 75 1.6 20.9 0.00 0.00 0.00 72 1018.4
20260508000123 26 62 6.4 20.9 0.00 0.00 0.00 70 1018.3
20260507235855 26 52 4.8 20.9 0.00 0.00 0.00 69 1018.4
20260507235354 26 86 6.4 20.9 0.00 0.00 0.00 70 1018.4
20260507234622 26 10 6.4 17.7 0.00 0.00 0.00 70 1018.4
20260507234122 26 72 9.7 20.9 0.00 0.00 0.00 72 1018.4
20260507233623 26 64 9.7 20.9 0.00 0.00 0.00 71 1018.3
20260507233123 26 60 8.0 20.9 0.00 0.00 0.00 71 1018.6
20260507232854 26 46 6.4 22.5 0.00 0.00 0.00 70 1018.4
20260507232123 26 44 8.0 22.5 0.00 0.00 0.00 73 1018.5
20260507231854 26 32 1.6 22.5 0.00 0.00 0.00 72 1018.3
20260507231124 26 30 3.2 22.5 0.00 0.00 0.00 71 1018.4
20260507230853 26 81 0.0 16.1 0.00 0.00 0.00 71 1018.2
20260507230123 26 65 6.4 20.9 0.00 0.00 0.00 70 1018.6
20260507225622 26 50 14.5 20.9 0.00 0.00 0.00 68 1018.7
20260507225123 26 52 8.0 20.9 0.00 0.00 0.00 70 1018.8
20260507224623 26 99 3.2 20.9 0.00 0.00 0.00 72 1018.7
20260507224123 26 59 12.9 22.5 0.00 0.00 0.00 73 1018.9
20260507223623 26 34 6.4 22.5 0.00 0.00 0.00 70 1018.9
20260507223123 26 55 6.4 17.7 0.00 0.00 0.00 71 1018.9
20260507222624 26 86 3.2 17.7 0.00 0.00 0.00 72 1019.2
20260507222123 26 65 11.3 22.5 0.00 0.00 0.00 72 1019.0
20260507221622 26 30 9.7 22.5 0.00 0.00 0.00 72 1019.0
20260507221123 26 82 12.9 24.1 0.00 0.00 0.00 72 1018.8
20260507220623 26 67 11.3 17.7 0.00 0.00 0.00 73 1019.2
20260507220123 26 52 1.6 17.7 0.00 0.00 0.00 73 1019.2
20260507215622 26 85 4.8 17.7 0.00 0.00 0.00 72 1019.2
20260507215124 26 76 9.7 20.9 0.00 0.00 0.00 72 1019.2
20260507214623 26 34 3.2 20.9 0.00 0.00 0.00 72 1019.3
20260507214355 26 45 12.9 20.9 0.00 0.00 0.00 72 1019.2
20260507213623 26 33 3.2 22.5 0.00 0.00 0.00 72 1019.4
20260507213122 26 60 14.5 22.5 0.00 0.00 0.00 71 1019.4
20260507212622 26 61 16.1 20.9 0.00 0.00 0.00 71 1019.4
20260507212123 26 73 0.0 20.9 0.00 0.00 0.00 72 1019.4
20260507211624 26 75 0.0 20.9 0.00 0.00 0.00 71 1019.5
20260507211123 26 78 4.8 20.9 0.00 0.00 0.00 72 1019.3
20260507210622 25 78 0.0 17.7 0.00 0.00 0.00 72 1019.7
20260507210122 25 81 3.2 17.7 0.00 0.00 0.00 73 1019.5
20260507205622 25 86 1.6 17.7 0.00 0.00 0.00 72 1019.7
20260507205122 25 75 0.0 22.5 0.00 0.00 0.00 72 1019.7
20260507204622 25 46 12.9 22.5 0.00 0.00 0.00 73 1019.6
20260507204122 26 122 8.0 20.9 0.00 0.00 0.00 72 1019.9
20260507203623 25 62 12.9 20.9 0.00 0.00 0.00 73 1019.8
20260507203123 25 62 0.0 17.7 0.00 0.00 0.00 74 1019.7
20260507202623 25 56 6.4 17.7 0.00 0.00 0.00 74 1019.7
20260507202123 25 85 6.4 16.1 0.00 0.00 0.00 74 1019.7
20260507201853 25 60 0.0 16.1 0.00 0.00 0.00 75 1019.5
20260507201110 25 39 4.8 14.5 0.00 0.00 0.00 74 1019.9
20260507200610 25 61 6.4 16.1 0.00 0.00 0.00 74 1019.6
20260507200111 25 61 6.4 16.1 0.00 0.00 0.00 73 1019.8
20260507195843 25 62 4.8 17.7 0.00 0.00 0.00 73 1020.0
20260507195110 25 53 1.6 17.7 0.00 0.00 0.00 75 1019.9
20260507194610 25 35 9.7 17.7 0.00 0.00 0.00 75 1019.8
20260507194110 25 96 0.0 17.7 0.00 0.00 0.00 74 1019.8
20260507193830 25 61 4.8 16.1 0.00 0.00 0.00 74 1019.7
20260507193047 25 109 0.0 17.7 0.00 0.00 0.00 75 1019.6
20260507192547 25 79 4.8 14.5 0.00 0.00 0.00 75 1019.8
20260507192034 25 62 1.6 17.7 0.00 0.00 0.00 75 1019.9
20260507191523 25 42 6.4 17.7 0.00 0.00 0.00 74 1019.9
20260507191023 25 69 0.0 17.7 0.00 0.00 0.00 75 1019.8
20260507190511 25 92 0.0 17.7 0.00 0.00 0.00 74 1019.7
20260507190011 25 48 0.0 17.7 0.00 0.00 0.00 75 1019.6
20260507185511 24 62 0.0 16.1 0.00 0.00 0.00 74 1019.6
20260507185011 25 50 6.4 20.9 0.00 0.00 0.00 74 1019.6
20260507184511 24 98 1.6 20.9 0.00 0.00 0.00 75 1019.8
20260507184010 24 46 6.4 20.9 0.00 0.00 0.00 75 1019.5
20260507183510 24 98 12.9 20.9 0.00 0.00 0.00 75 1019.5
20260507183010 24 68 0.0 16.1 0.00 0.00 0.00 76 1019.4
20260507182741 25 71 6.4 16.1 0.00 0.00 0.00 75 1019.7
20260507182011 24 70 3.2 17.7 0.00 0.00 0.00 75 1019.4
20260507181741 24 32 8.0 17.7 0.00 0.00 0.00 76 1019.6
20260507181242 24 55 0.0 16.1 0.00 0.00 0.00 76 1019.4
20260507180741 24 114 6.4 16.1 0.00 0.00 0.00 77 1019.3
20260507180010 23 74 6.4 14.5 0.00 0.00 0.00 77 1019.1